Regional Weather Roundup
Issued by NWS

Home | Current Version | Previous Version | Text Only | Print | Product List | Glossary Off
Versions: 1 2 3 4 5 6 7 8 9 10 11 12 13 14 15 16 17 18 19 20 21 22 23 24 25 26 27 28 29 30 31 32 33 34 35 36 37 38 39 40 41 42 43 44 45 46 47 48 49 50

000
ASUS43 KTOP 270959
RWRKS

WEATHER ROUNDUP FOR KANSAS
NATIONAL WEATHER SERVICE GOODLAND KS
500 AM CDT MON APR 27 2015

NOTE:  "FAIR" INDICATES FEW OR NO CLOUDS BELOW 12,000 FEET WITH NO
SIGNIFICANT WEATHER AND/OR OBSTRUCTIONS TO VISIBILITY.

KSZ001>006-013>018-027>032-041>047-271100-
NORTHWEST KANSAS

CITY           SKY/WX    TMP DP  RH WIND       PRES   REMARKS
GOODLAND       CLOUDY    44  43  96 NE12      30.11R
HAYS           CLOUDY    45  34  65 NE9       30.08R
HILL CITY      CLOUDY    44  38  79 NE6       30.11R
RUSSELL        CLOUDY    43  40  89 NE7       30.07R
$$

KSZ061>065-074>080-084>089-271100-
SOUTHWEST KANSAS

CITY           SKY/WX    TMP DP  RH WIND       PRES   REMARKS
DODGE CITY     LGT RAIN  46  43  89 NE17      30.00S
ELKHART          N/A    N/A N/A N/A MISG        N/A
GARDEN CITY    CLOUDY    45  43  93 NE20G25   30.00S
GREAT BEND     CLOUDY    45  39  81 NE12      30.04F
LIBERAL        CLOUDY    46  43  87 NE15      29.97R
$$

KSZ066>073-081>083-090>101-271100-
SOUTHEAST KANSAS

CITY           SKY/WX    TMP DP  RH WIND       PRES   REMARKS
CHANUTE        CLOUDY    49  39  68 NE7       30.02R
COFFEYVILLE    CLOUDY    52  40  63 NE12      29.97S
HUTCHINSON     CLOUDY    48  39  71 NE10      30.03S
MEDICINE LODGE   N/A     48  45  89 E14G23    29.94S
NEWTON         CLOUDY    46  36  66 NE10      30.04F
PARSONS        CLOUDY    51  41  68 NE6       30.00S
WICHITA INTL   CLOUDY    52  38  58 NE14      29.99S
WICHITA JABRA  CLOUDY    50  38  63 NE14      29.99F
WINFIELD       LGT RAIN  50  43  77 NE12      29.96R
$$

KSZ007>012-019>026-033>040-048>060-102>105-271100-
NORTHEAST KANSAS

CITY           SKY/WX    TMP DP  RH WIND       PRES   REMARKS
CONCORDIA      MOCLDY    42  33  70 NE6       30.10R
EMPORIA        CLOUDY    46  37  71 E5        30.06R
LAWRENCE       CLOUDY    46  36  68 NE9       30.05F
MANHATTAN      CLOUDY    46  37  71 NE7       30.08R
OLATHE IND     CLOUDY    47  36  65 E8        30.04S
OLATHE EXE     CLOUDY    46  36  68 NE9       30.03S
SALINA         CLOUDY    47  38  71 NE6       30.08R
TOPEKA BILLARD CLOUDY    44  37  76 N6        30.07R
TOPEKA FORBES  CLOUDY    46  38  73 NE7       30.05R
$$



USA.gov is the U.S. government's official web portal to all federal, state and local government web resources and services.